This demonstration page uses our WeatherBlox Daily Observations layout. Learn more.

Left ArrowRight Arrow

34.02893, -84.19858

Hourly Observations for April 18, 2019

Temp ( °F °C ) Dew Point ( °F °C ) Humidity (%) Winds ( mph kmh ) Pressure ( in mb ) Visibility ( mi km ) Precip ( " mm )
12:53 am 00:53 Clear 64 17.8 54 12.2 70 70 S 5 7 30.00 1016 10 16 0.00 0.00
1:53 am 01:53 Clear 65 18.3 54 12.2 68 68 SSE 8 13 29.97 1015 10 16 0.00 0.00
2:53 am 02:53 Clear 64 17.8 55 12.8 73 73 S 6 9 29.93 1014 10 16 0.00 0.00
3:53 am 03:53 Clear 63 17.2 55 12.8 76 76 SSE 3 6 29.91 1013 10 16 0.00 0.00
4:53 am 04:53 Clear 62 16.7 54 12.2 75 75 SSE 6 9 29.91 1013 10 16 0.00 0.00
5:53 am 05:53 Clear 60 15.6 55 12.8 84 84 Calm 29.93 1014 10 16 0.00 0.00
6:53 am 06:53 Clear 59 15 55 12.8 87 87 Calm 29.93 1014 10 16 0.00 0.00
7:53 am 07:53 Sunny 60 15.6 57 13.9 90 90 SE 3 6 29.95 1014 10 16 0.00 0.00
8:53 am 08:53 Sunny 62 16.7 59 15 90 90 VRB 5 7 29.97 1015 10 16 0.00 0.00
9:53 am 09:53 Cloudy 66 18.9 59 15 78 78 SSE 9 15 29.98 1015 10 16 0.00 0.00
10:53 am 10:53 Cloudy 67 19.4 60 15.6 79 79 SSE 10 17 29.98 1015 10 16 0.00 0.00
11:53 am 11:53 Cloudy 71 21.7 61 16.1 71 71 SSE 7 11 29.99 1016 10 16 0.00 0.00
12:53 pm 12:53 Mostly Cloudy 73 22.8 60 15.6 64 64 SSE 12 19 29.96 1015 10 16 0.00 0.00
1:53 pm 13:53 Mostly Cloudy 74 23.3 60 15.6 62 62 SSE 9 15 29.92 1013 10 16 0.00 0.00
2:53 pm 14:53 Mostly Cloudy 75 23.9 58 14.4 55 55 S 13 20 29.88 1012 10 16 0.00 0.00
3:53 pm 15:53 Mostly Sunny 77 25 55 12.8 47 47 S 14 22 29.83 1010 10 16 0.00 0.00
4:53 pm 16:53 Mostly Cloudy 76 24.4 56 13.3 50 50 SSE 12 19 29.80 1009 10 16 0.00 0.00
5:53 pm 17:53 Partly Cloudy 77 25 57 13.9 50 50 SE 14 22 29.77 1008 10 16 0.00 0.00
6:53 pm 18:53 Mostly Sunny 74 23.3 55 12.8 52 52 SSE 13 20 29.78 1008 10 16 0.00 0.00
7:53 pm 19:53 Cloudy 73 22.8 56 13.3 55 55 SSE 8 13 29.78 1008 10 16 0.00 0.00
8:53 pm 20:53 Mostly Cloudy 72 22.2 57 13.9 59 59 SE 7 11 29.77 1008 10 16 0.00 0.00
9:53 pm 21:53 Clear 71 21.7 56 13.3 59 59 SE 7 11 29.75 1008 10 16 0.00 0.00
10:53 pm 22:53 Partly Cloudy 70 21.1 56 13.3 61 61 SSE 10 17 29.74 1007 10 16 0.00 0.00
11:53 pm 23:53 Cloudy 70 21.1 57 13.9 64 64 SSE 8 13 29.72 1007 10 16 0.00 0.00

Powered by AerisWeather